Location: Taukkyan
(23.1052°N, 94.0030°E)
Time: 21:46:35
(UTC+00:00)

Cosmos 1378 - Pass Details

Date: 06 July 2020
Orbit: 493 x 500 km, 82.5° (Epoch: 05 August)

Event Time Altitude Azimuth Distance (km) Brightness Sun altitude
Rises 22:04:28 0° 351° (N) 2,588 7.1 -12.9°
Reaches altitude 10° 22:06:35 10° 349° (NNW) 1,703 6.1 -12.5°
Maximum altitude 22:10:17 67° 266° (W) 543 3.0 -11.8°
Drops below altitude 10° 22:13:59 10° 183° (S) 1,697 5.5 -11.0°
Sets 22:16:06 0° 181° (S) 2,577 6.4 -10.6°
